Погода в Жердевке

Погода в Жердевке : погода сейчас, прогноз погоды и архив. Всё, что Вы хотите узнать о погоде в Жердевке!

Хотите узнать прогноз погоды в Жердевке? Тогда Вам сюда: Погода в Жердевке

Поиск расширенной информации на нашем сайте:

Другие новости

Новости СМИ2

Главная страница сайта

Новости сайта

03.07.2017

Напоминаем, что на нашем специализированном сайте Метеоцентр.Азия вы можете получить высокодетализированные автоматические прогнозы погоды по пунктам России, СНГ и мира в авиационном формате (включающие направление и скорость ветра, видимость, явления погоды, количество и форму облачности, нижнюю и верхнюю границу облачности).


Погода в Жердевке - сегодня

Время (UTC), дата Ветер
(°,м/с) 
Видим.   Явления Облачность Т
(°С)
Тd
(°С)
f(%) Тe
(°С)
Pmin
(гПа)
dP
(гПа)
Po
(мм)
O2
(г/м3)
Тmin Tmax R s Состояние
почвы
09 20.01.18 170 (Ю) 10 км  слаб. снег  10/10 330 м 
[Frnb|Ns]
-8.6 -11 83 -13  1016.9  748  312           
12 20.01.18 170 (Ю) 10 км  слаб. снег  10/10 330 м 
[Frnb|Ns]
-6.1 -8.4 84 -9  1016.7  0.1  748  309           
15 20.01.18 170 (Ю) 20000 м  {снег}  10/10 600 м 
[Sc]
-5.2 -6.9 88 -8  1017.3  0.6  749  308    -4.9     
18 20.01.18 160 (Ю) 10 км  слаб. снег  10/10 360 м 
[Frnb|Ns]
-4.1 -5 93 -7  1017  -0.1  749  307           
21 20.01.18 170 (Ю) 10 км  слаб. снег  10/10 330 м 
[Frnb|Ns]
-3.9 -4.7 94 -7  1016.1  -0.9  748  306           
00 21.01.18 140 (ЮВ) 10 км  слаб. снег  10/10 300 м 
[Frnb|Ns]
-4.4 -5.3 93 -8  1014.3  -1.9  747  306           
03 21.01.18 140 (ЮВ) 4000 м  слаб. снег  10/10 300 м 
[Frnb|Ns]
-4.5 -5.8 91 -8  1012.5  -1.8  745  306  -5.2    равномерный
сухой снег
100% 
06 21.01.18 140 (ЮВ) 4000 м  слаб. снег  10/10 240 м 
[Frnb|Ns]
-2.4 -3.3 94 -5  1011.2  -1  745  303           
09 21.01.18 150 (ЮВ) 6{11}  4000 м  слаб. снег  10/10 270 м 
[Frnb|Ns]
-1.5 -2.6 92 -5  1009.6  -1.6  743  301           
12 21.01.18 140 (ЮВ) 6{12}  4000 м  слаб. снег  10/10 210 м 
[Frnb|Ns]
-2 -2.9 94 -6  1007.1  -2.4  742  301           
15 21.01.18 150 (ЮВ) 6{11}  4000 м  слаб. снег  10/10 240 м 
[Frnb|Ns]
-2.4 -3.3 94 -6  1005.8  -1.3  741  301    -1.2     
18 21.01.18 250 (З) 6-10{11}  4000 м  слаб. снег  10/10 330 м 
[Frnb|Ns]
-0.3 -1.2 94 -4  1005.6  -0.1  740  299           
21 21.01.18 270 (З) 6{12}  10 км  позёмок{снег}  10/10 600 м 
[Sc]
-4.8 -6.1 91 -9  1011.8  5.7  745  306           
00 22.01.18 280 (З) 4{10}  10 км  {снег}  10/10 570 м 
[Sc]
-3 -5.4 83 -6  1014.1  2.4  747  305           
03 22.01.18 250 (З) 10 км    ясно 
-9.3 -10.9 88 -11  1016.6  748  313  -9.3    17  равномерный
сухой снег
100% 
06 22.01.18 140 (ЮВ) 4000 м  дымка  8/0 верхняя 
[Ci fib]
-12.4 -13.7 90 -12  1018.9  750  318  -12.4         
09 22.01.18 220 (ЮЗ) 0500 м  туман  10/0 средняя 
[As trans]
-8.4 -9.4 92 -10  1020  1.3  751  313           
12 22.01.18 010 (С) 4000 м  дымка{туман}  10/0 средняя 
[As trans]
-7.4 -8.7 90 -7  1020.3  0.5  751  312           
15 22.01.18 040 (СВ) 4000 м  дымка  10/10 330 м 
[St]
-7.2 -8.3 92 -7  1020.8  0.5  751  312    -7.1       
18 22.01.18 020 (С) 10 км    10/10 400 м 
[St]
-6.3 -7.5 91 -6  1020.9  0.2  751  311           
21 22.01.18 060 (СВ) 10 км    10/10 420 м 
[St]
-6.1 -7.2 92 -11  1021  0.1  752  310           
00 23.01.18 060 (СВ) 10 км    10/10 400 м 
[St]
-6.3 -7.8 89 -10  1020.6  -0.4  751  311           
03 23.01.18 040 (СВ) 10 км    10/10 360 м 
[St]
-6.3 -8.2 86 -9  1020.2  -0.4  751  311  -7.5      17  равномерный
сухой снег
100% 
06 23.01.18 050 (СВ) 10 км    10/10 360 м 
[St]
-6 -8.3 84 -10  1020.2  751  310           
09 23.01.18 050 (СВ) 5{10}  10 км    10/10 400 м 
[St]
-5.6 -8.2 82 -10  1019.4  -0.8  750  309           
Время (UTC), дата Ветер
(°,м/с) 
Видим.   Явления Облачность Т
(°С)
Тd
(°С)
f(%) Тe
(°С)
Pmin
(гПа)
dP
(гПа)
Po
(мм)
O2
(г/м3)
Тmin Tmax R s Состояние
почвы

Для получения пояснительной информации подведите курсор к названию столбца.

ПОГОДА в Жердевке - архив

Всё, что Вы хотите узнать о погоде в Жердевке - удобно и подробно!

Выберите нужную дату (начиная с 1 января 2015* года) и нажмите кнопку "Найти".
Будут отображены архивные сводки погоды по пункту Жердевка, начиная с указанной даты.


Отображать данные в формате CSV (для использования в таблицах Excel)


Внимание! Наш архив погоды предназначен исключительно для личного некоммерческого использования в познавательных целях. Если Вам необходимы официальные справки о состоянии погоды (для производственных, юридических, коммерческих и т.п. целей), обращайтесь в органы Росгидромета.

*Примечание: данная дата относится к архиву по метеостанциям СССР (Россия, СНГ, Балтия).
Архив по метеостанциям Зарубежной Европы и Азии (кроме Китая) хранится 10 дней, по другим регионам земного шара (Китай, Африка, Америка, Австралия, Океания) - 1 день.

Жердевка - район местоположения метеостанции


Название, широта, долгота, высота метеостанции:
Жердевка 51.8°ш. 41.5°д. 147 м над ур. моря [Российская Федерация]

Дополнительная информация

В oтличие oт бoльшинства пoгoдных сайтoв мы публикуем пoдрoбную метеoинфoрмацию в детальнoм прoфессиoнальнoм фoрмате.

Характеристики температуры и влажнoсти вoздуха измеряются на высoте 2 м в тени вдали oт зданий и деревьев.
Скoрoсть ветра измеряется на высoте 10 м (на урoвне рoста челoвека скoрoсть ветра ниже в 1.5-2 раза). Если метеoстанция нахoдится в гoрoде или в лесу, тo скoрoсть ветра занижена на 2-4 м/с пo сравнению с oткрытым местoм. Скoрoсть ветра над акватoриями крупных рек и oзёр, а также на вершинах хoлмoв на 2-5 м/с выше, чем в oбычных услoвиях.
Атмoсфернoе давление в разных тoчках местнoсти мoжет значительнo oтличаться oт давления на метеoстанции, в зависимoсти oт услoвий рельефа (при пoдъёме на 10 м давление пoнижается примернo на 1 мм рт.ст.).